Wind_Speed
43 43 43 43 42 41 41 41 43 43 43 44 44 44 44 43 44 44 44 45 46 47 47 47 46 47 47 47 47 47 47 47 47 47 47 47 47 48 47 47 47 47 47 47 46 46 46 46 46 46 46 46
42 43 44 44 44 43 43 43 44 45 45 45 46 46 46 46 46 46 47 47 48 49 49 49 48 48 49 49 49 49 49 49 48 48 49 49 49 49 49 48 48 47 47 47 46 46 46 46 46 46 46 46
43 43 44 45 45 46 46 46 46 47 47 48 48 49 49 49 49 49 49 50 51 51 51 51 51 51 51 51 50 50 50 50 50 50 50 50 49 49 49 49 48 48 48 47 47 46 46 46 45 46 46 46
47 46 45 45 46 47 48 48 48 49 49 50 51 51 51 52 52 51 51 52 52 52 53 53 53 53 53 52 52 51 51 51 50 50 50 50 50 50 50 50 49 49 48 48 47 47 46 46 46 46 46 46
49 49 49 48 49 49 50 50 51 51 51 52 53 53 53 53 53 53 53 53 52 52 53 54 54 54 53 52 52 51 51 51 50 50 50 49 49 50 50 49 49 49 48 48 48 47 47 46 46 46 46 46
50 51 51 51 51 51 52 52 52 52 52 52 52 53 53 53 53 53 53 53 52 52 52 53 53 52 52 51 51 51 50 50 49 49 49 49 49 49 49 49 49 49 49 48 48 47 47 47 47 47 47 47
52 52 53 53 53 53 53 53 52 52 52 51 51 51 52 52 52 52 52 52 52 52 52 52 52 51 51 51 51 50 50 50 49 49 49 49 49 50 50 50 50 49 49 49 48 48 48 48 48 48 48 48
53 53 54 55 55 55 54 54 53 52 51 51 51 51 51 52 52 52 52 52 52 52 52 51 51 51 51 51 51 51 51 51 51 50 50 50 50 51 50 50 50 50 49 49 49 49 49 49 49 49 49 49
51 53 53 54 55 55 54 54 53 52 52 52 51 51 51 52 52 52 52 52 52 52 52 51 51 51 51 52 52 52 52 52 52 52 52 51 51 51 51 50 50 50 50 50 50 50 50 50 50 50 50 50
50 51 51 52 53 53 53 53 53 52 52 52 52 52 52 52 51 51 51 51 51 51 51 51 51 51 51 51 52 52 52 52 52 52 52 52 51 51 51 51 50 50 50 50 50 50 50 51 51 51 51 51
48 49 50 50 51 51 52 52 53 52 52 51 51 51 51 51 51 51 51 51 51 51 51 51 50 50 50 50 51 51 51 52 52 52 52 51 51 51 51 51 50 50 50 50 51 51 51 51 51 51 51 51
47 48 48 49 50 50 50 50 51 51 51 50 50 50 51 51 51 51 51 51 51 50 50 50 50 49 49 50 50 51 51 52 52 52 52 52 51 51 51 51 51 51 51 51 51 51 52 52 52 52 52 52
47 48 48 48 48 48 48 48 47 47 48 48 48 49 50 50 50 50 50 50 50 49 49 49 48 48 48 49 50 50 51 52 52 52 52 52 52 52 52 52 52 52 52 52 52 52 53 52 52 52 52 52
47 48 47 47 46 46 46 45 45 45 46 46 47 47 48 49 49 49 49 49 49 48 48 48 48 48 48 49 50 50 51 52 52 52 52 52 52 52 52 52 52 53 53 53 53 53 53 53 52 52 52 51
47 47 46 46 45 45 45 45 45 45 46 46 47 48 48 48 49 49 49 49 49 49 48 48 48 49 49 50 51 51 52 52 53 53 53 53 53 53 53 53 53 53 53 53 53 53 53 52 52 52 51 51
47 46 45 45 45 45 45 46 46 46 46 47 48 49 49 50 50 50 49 49 49 49 49 49 49 50 51 51 52 52 53 53 54 54 54 54 54 54 54 54 54 53 53 53 53 53 53 52 52 52 52 51
46 46 45 45 45 46 47 47 47 48 48 48 48 49 50 51 51 51 50 50 50 50 50 50 51 52 52 53 53 54 54 55 55 55 55 55 55 55 55 55 55 54 54 54 54 53 53 53 53 53 53 53
46 46 45 45 46 47 47 48 49 49 49 49 49 50 50 50 51 51 50 50 50 51 51 52 52 53 53 54 55 55 56 56 57 57 57 57 57 57 57 56 56 56 55 55 55 55 55 55 55 55 55 55
47 46 46 46 46 47 48 48 49 50 50 50 49 49 49 49 49 50 50 50 51 52 52 53 54 54 54 54 56 57 57 58 59 59 59 59 59 58 58 58 57 57 57 56 56 56 56 57 57 57 57 57
47 46 46 46 47 47 48 49 49 49 49 49 49 49 48 48 49 50 51 51 52 53 54 55 56 56 56 56 57 58 59 60 60 60 60 60 60 60 60 59 59 58 58 58 58 58 58 58 58 58 58 58
48 47 47 47 48 48 49 49 49 49 49 49 49 49 49 49 50 51 52 53 54 55 56 57 57 58 58 58 58 59 60 61 62 62 62 62 62 62 62 61 61 61 60 60 60 60 59 59 59 59 60 60
49 49 48 48 49 49 50 50 51 51 51 51 51 50 51 51 52 52 53 55 56 57 58 59 59 59 60 60 61 61 61 62 63 63 64 64 64 64 64 64 63 63 63 63 62 62 62 62 62 62 62 62
50 50 49 49 49 50 50 51 52 52 53 53 53 53 53 53 54 54 54 55 56 58 59 60 61 61 61 62 63 63 63 64 64 65 65 65 65 66 66 66 66 65 65 65 65 65 65 64 64 64 64 64
51 51 50 49 50 51 52 52 53 54 54 55 56 56 56 56 56 55 56 56 56 57 59 60 61 62 63 63 64 65 65 65 65 66 66 66 67 67 67 68 68 68 67 67 67 67 67 67 66 66 66 66
52 52 52 52 52 53 54 54 54 54 55 57 58 58 58 58 57 57 57 57 57 57 58 59 61 62 63 64 64 66 67 67 67 67 68 68 68 68 69 69 69 70 70 69 69 69 69 69 68 68 68 68
54 55 55 55 56 56 56 56 57 57 57 57 58 59 60 60 59 59 58 58 58 58 59 60 61 62 63 64 65 65 67 68 68 68 69 69 70 70 70 71 71 71 71 71 71 71 71 71 71 70 70 70
56 57 58 59 59 58 58 57 58 58 59 59 60 60 61 61 61 61 60 60 60 60 60 60 61 62 63 65 65 66 67 68 68 69 69 70 70 71 71 72 72 73 73 73 73 73 73 73 72 72 72 72
58 58 59 60 60 60 59 58 58 59 60 61 62 62 62 63 63 63 62 62 62 61 62 62 63 63 64 65 66 67 67 68 69 69 70 71 71 71 72 73 73 74 74 75 75 75 75 75 75 74 74 74
60 60 61 62 62 62 62 61 61 61 62 63 63 63 63 63 64 64 64 64 63 63 64 64 64 65 66 67 67 68 69 69 70 70 71 72 72 73 73 74 74 75 76 76 76 77 77 77 77 77 77 76
62 63 64 64 65 65 65 64 64 64 64 64 65 65 65 65 65 65 65 65 65 66 66 66 66 67 67 68 69 70 70 71 72 72 73 73 74 75 75 75 76 77 77 78 78 79 79 80 80 80 80 79
62 63 64 65 65 66 66 66 66 66 66 66 66 66 66 66 67 67 67 67 67 68 68 68 68 69 69 70 71 71 72 73 74 74 75 75 76 77 77 77 78 79 79 80 80 81 81 82 82 83 83 82
Wind_Direction
254 253 253 253 252 252 254 256 257 258 258 260 261 261 262 262 262 263 264 265 265 265 265 265 265 265 266 266 266 267 268 269 270 271 272 273 273 274 274 274 274 274 274 274 274 274 275 275 275 275 274 274
253 253 252 253 254 254 255 256 259 260 261 262 263 263 264 264 264 264 265 265 266 266 266 266 266 265 265 266 267 267 269 270 270 271 272 272 273 274 274 274 274 274 274 274 274 274 274 274 274 274 274 273
255 254 253 254 255 256 257 257 259 261 262 263 264 265 265 265 265 265 265 266 266 267 268 268 268 267 267 267 267 268 269 269 270 271 272 272 273 274 274 275 275 275 275 275 275 274 274 274 273 273 273 273
258 258 257 256 257 258 259 260 261 262 263 264 265 266 266 266 266 266 266 266 267 267 268 268 268 268 268 268 268 269 269 270 270 271 272 273 273 274 274 275 275 275 275 275 275 274 274 273 273 272 272 271
258 259 259 259 260 260 261 262 262 263 263 264 265 265 266 266 266 266 266 267 267 267 267 268 268 268 268 268 269 269 269 270 270 271 271 272 272 273 273 274 274 274 274 273 273 273 273 272 272 271 271 271
257 258 259 260 261 261 262 262 263 263 263 263 263 264 264 265 265 265 266 266 266 267 267 267 268 268 268 269 269 269 269 269 270 270 271 271 271 272 272 272 272 272 272 272 272 272 272 272 272 271 271 271
256 258 259 259 260 261 262 263 263 263 263 262 262 263 263 264 265 265 265 265 266 266 267 268 268 269 269 270 270 271 271 271 271 272 272 272 272 271 272 272 272 272 272 272 272 272 272 272 272 272 272 271
256 258 259 260 261 261 262 263 263 263 263 263 263 263 263 263 264 264 265 265 266 266 267 268 269 270 270 271 271 271 271 272 272 272 272 272 272 272 272 272 272 272 273 273 273 273 273 272 272 272 272 272
257 258 259 260 261 262 263 263 264 264 264 264 264 264 264 264 264 265 265 266 267 267 267 268 269 269 270 270 270 270 270 270 271 271 271 271 271 271 271 271 272 272 272 272 272 272 272 272 271 271 271 271
260 260 261 261 262 263 263 264 264 264 264 264 265 265 265 265 265 265 266 266 267 267 267 267 268 268 269 269 269 269 269 269 269 270 270 271 270 270 270 270 270 270 270 270 270 270 270 270 270 270 270 270
263 263 263 263 263 263 263 263 264 264 265 265 265 265 265 265 265 265 265 265 266 266 266 267 267 267 268 269 269 269 269 269 269 269 270 270 269 269 269 269 269 269 269 269 269 269 270 270 270 269 269 269
265 265 264 264 264 264 264 264 264 264 265 265 266 266 266 266 266 266 266 267 267 267 267 267 267 268 268 269 269 269 269 269 269 269 269 269 269 268 268 268 269 269 269 269 269 269 269 269 269 269 269 269
268 267 267 266 266 265 265 265 265 265 266 266 266 267 267 267 268 268 268 268 268 268 268 268 268 268 268 268 268 268 268 268 268 268 267 267 267 268 268 268 269 269 269 269 269 269 270 270 269 269 269 269
268 269 269 269 269 268 268 267 266 266 266 266 266 267 267 268 268 269 269 269 269 269 269 269 269 268 268 267 267 267 267 267 267 267 267 267 267 268 268 268 269 269 269 269 269 269 269 269 269 269 268 268
268 268 268 268 269 269 269 268 267 266 266 266 266 266 266 266 267 268 268 269 269 269 269 269 268 268 267 266 266 266 266 266 267 268 268 268 269 269 269 270 270 270 270 270 270 269 269 269 268 268 268 268
266 266 266 266 266 267 267 267 266 266 266 266 266 266 266 266 266 266 267 267 267 267 268 268 268 267 267 267 267 267 268 268 269 269 270 270 270 271 271 271 271 271 271 271 270 270 270 269 269 268 268 268
265 265 265 265 265 265 265 266 266 266 266 266 266 266 267 267 267 267 267 266 266 267 267 267 267 268 268 269 269 270 270 270 270 270 271 271 271 272 272 271 271 271 271 270 270 270 270 270 270 270 270 270
263 263 263 264 264 265 265 266 266 266 266 266 266 267 267 268 268 269 268 267 267 267 267 268 268 269 269 269 270 270 270 270 270 270 270 271 271 271 271 271 271 270 270 270 270 270 270 270 270 270 270 271
261 261 262 263 264 265 266 266 266 267 267 267 268 268 269 270 270 271 270 269 268 267 267 267 267 267 267 268 268 268 269 269 269 269 269 270 270 270 270 270 270 270 270 270 270 270 270 270 270 271 271 271
260 260 261 263 265 266 267 267 267 267 267 268 268 270 271 271 272 272 272 271 270 269 267 267 266 266 266 266 267 267 268 268 268 269 269 269 269 269 270 270 270 270 270 270 270 270 270 270 270 271 271 271
259 260 261 264 267 268 268 268 267 267 267 267 268 270 271 272 273 273 272 272 271 270 269 268 268 267 267 267 267 267 268 268 268 269 269 269 269 269 269 269 269 269 269 269 270 270 270 270 270 270 270 270
260 260 262 266 269 270 269 268 267 267 267 267 267 269 271 272 273 273 273 272 271 270 270 269 269 268 268 268 268 267 268 268 269 269 269 269 269 269 269 269 269 269 270 270 270 270 270 270 270 270 270 270
260 260 264 268 271 271 269 268 267 267 267 266 267 268 270 272 274 274 274 273 272 271 270 270 269 268 268 268 268 268 268 268 269 270 270 270 270 270 270 270 270 270 270 270 271 271 271 271 271 271 271 271
261 262 264 268 270 270 269 267 267 266 266 267 267 268 270 272 274 274 274 274 273 272 272 271 270 269 268 268 268 268 268 269 269 269 270 270 271 271 271 271 271 271 271 271 271 271 271 271 271 271 271 271
262 263 264 267 269 270 268 266 266 266 267 267 267 268 270 272 273 275 275 274 274 273 273 272 271 271 270 269 269 268 269 269 269 269 270 270 270 271 271 271 271 271 271 271 271 271 271 271 271 271 271 271
264 265 265 267 269 269 269 266 265 266 267 268 269 269 270 271 273 274 275 275 274 274 273 273 272 272 271 271 270 269 269 269 269 270 270 270 270 270 270 270 271 271 271 270 270 270 270 270 270 270 270 270
266 267 267 268 269 269 269 267 266 266 267 268 270 270 271 272 273 274 275 275 275 274 274 274 273 272 272 271 271 270 270 270 270 270 270 270 270 270 270 270 270 271 271 270 270 270 270 270 270 270 269 269
267 268 269 269 269 269 269 268 268 268 268 269 270 271 272 272 273 274 274 274 274 274 275 274 274 273 273 272 272 271 271 270 270 271 271 271 271 271 271 271 271 271 271 271 271 271 271 270 270 270 270 270
268 269 270 271 270 270 270 270 270 270 271 271 271 272 272 273 273 273 273 274 274 274 274 274 274 274 273 273 272 272 272 271 271 271 271 271 271 271 271 271 271 271 271 271 271 271 271 271 271 270 270 270
268 269 270 271 272 272 271 271 271 272 272 272 272 273 273 274 274 274 274 274 274 274 274 274 274 273 273 272 272 272 272 272 271 271 271 271 271 271 271 271 271 271 271 272 271 271 271 271 271 271 271 270
267 268 270 271 272 272 272 272 273 273 274 274 273 273 274 274 274 274 274 274 274 274 274 274 273 272 272 272 272 271 271 271 271 271 271 271 271 271 271 270 271 271 271 271 271 271 271 271 271 271 271 271
Height
5814 5814 5815 5815 5816 5817 5817 5817 5817 5818 5819 5819 5819 5819 5820 5820 5820 5821 5821 5821 5821 5821 5821 5822 5823 5823 5822 5822 5822 5822 5823 5823 5824 5825 5825 5826 5826 5826 5826 5826 5826 5826 5826 5826 5826 5826 5825 5825 5825 5825 5826 5826
5810 5811 5812 5812 5813 5813 5813 5813 5813 5814 5814 5815 5815 5815 5816 5816 5816 5817 5818 5817 5817 5818 5818 5818 5819 5819 5818 5818 5818 5819 5819 5820 5820 5820 5821 5821 5821 5821 5822 5822 5822 5822 5822 5822 5821 5821 5821 5821 5821 5821 5821 5821
5807 5807 5808 5809 5809 5808 5809 5810 5810 5810 5810 5810 5811 5812 5812 5811 5812 5812 5813 5813 5813 5813 5814 5814 5814 5814 5814 5814 5815 5815 5815 5816 5816 5816 5816 5816 5816 5816 5816 5817 5817 5817 5817 5817 5817 5817 5816 5816 5816 5816 5816 5816
5803 5803 5804 5805 5805 5804 5805 5805 5806 5806 5806 5806 5806 5807 5807 5807 5807 5807 5807 5808 5808 5809 5809 5809 5809 5810 5810 5810 5810 5811 5811 5811 5811 5812 5812 5812 5812 5812 5812 5812 5812 5812 5812 5812 5812 5812 5812 5812 5811 5811 5811 5811
5799 5799 5800 5800 5800 5801 5801 5801 5801 5801 5802 5802 5802 5802 5803 5803 5803 5803 5803 5803 5804 5804 5804 5805 5805 5805 5806 5806 5806 5806 5806 5806 5807 5807 5807 5808 5808 5808 5808 5808 5808 5808 5808 5808 5808 5808 5807 5807 5807 5807 5806 5806
5794 5795 5795 5795 5796 5796 5796 5796 5796 5797 5797 5798 5798 5798 5798 5798 5798 5799 5799 5799 5799 5800 5800 5800 5801 5801 5801 5801 5801 5801 5802 5802 5802 5803 5803 5803 5803 5804 5804 5803 5803 5803 5803 5803 5803 5803 5803 5802 5802 5801 5801 5801
5790 5790 5790 5791 5791 5791 5791 5792 5792 5792 5793 5793 5794 5794 5794 5794 5794 5794 5795 5795 5795 5796 5796 5796 5796 5797 5797 5797 5797 5797 5797 5797 5797 5798 5798 5798 5799 5799 5799 5798 5798 5798 5798 5798 5797 5797 5797 5797 5796 5796 5796 5795
5785 5785 5786 5786 5786 5787 5787 5787 5788 5788 5788 5789 5789 5789 5790 5790 5790 5790 5790 5791 5791 5792 5792 5792 5792 5792 5792 5792 5792 5792 5792 5792 5792 5792 5793 5793 5793 5793 5793 5793 5792 5792 5792 5792 5791 5791 5791 5791 5791 5790 5790 5790
5781 5781 5781 5782 5782 5782 5782 5783 5783 5784 5784 5784 5784 5785 5785 5785 5785 5786 5786 5786 5786 5787 5787 5787 5788 5787 5787 5787 5787 5787 5787 5787 5787 5787 5787 5787 5788 5788 5787 5787 5787 5787 5786 5786 5786 5786 5786 5785 5785 5785 5785 5784
5777 5777 5777 5778 5778 5778 5778 5778 5779 5779 5779 5779 5780 5780 5780 5781 5781 5781 5781 5781 5782 5782 5782 5782 5782 5782 5782 5782 5781 5782 5781 5781 5782 5782 5782 5782 5782 5782 5781 5781 5781 5781 5781 5780 5780 5780 5780 5780 5780 5780 5780 5779
5773 5773 5773 5773 5774 5774 5774 5774 5774 5774 5774 5774 5774 5775 5775 5776 5776 5776 5776 5776 5777 5777 5777 5777 5777 5777 5777 5776 5776 5776 5776 5775 5776 5776 5776 5775 5775 5776 5775 5775 5775 5775 5775 5775 5775 5775 5775 5775 5775 5775 5774 5774
5768 5768 5768 5768 5769 5769 5769 5769 5769 5769 5769 5769 5769 5770 5770 5771 5771 5771 5771 5771 5771 5772 5772 5771 5771 5771 5771 5770 5770 5770 5770 5769 5770 5770 5770 5769 5769 5769 5769 5769 5769 5770 5770 5770 5770 5770 5770 5769 5769 5769 5769 5768
5762 5762 5762 5763 5763 5763 5764 5764 5764 5764 5764 5764 5764 5765 5765 5765 5766 5766 5766 5766 5766 5766 5766 5766 5766 5766 5765 5765 5764 5764 5764 5764 5764 5764 5764 5764 5763 5764 5764 5764 5764 5764 5764 5764 5764 5764 5764 5764 5763 5763 5763 5762
5757 5757 5757 5757 5757 5758 5758 5758 5758 5759 5759 5759 5759 5759 5760 5760 5760 5760 5760 5760 5760 5760 5760 5760 5760 5760 5760 5759 5759 5758 5758 5758 5758 5758 5758 5758 5758 5758 5758 5758 5758 5758 5758 5758 5758 5758 5758 5758 5758 5757 5757 5757
5752 5752 5752 5752 5752 5752 5752 5752 5752 5752 5753 5753 5753 5753 5754 5754 5754 5754 5754 5754 5754 5754 5754 5754 5754 5754 5754 5753 5753 5752 5752 5752 5752 5752 5752 5752 5753 5752 5752 5752 5753 5753 5753 5753 5753 5753 5753 5752 5752 5752 5752 5752
5746 5746 5747 5747 5746 5746 5746 5746 5746 5746 5746 5747 5747 5747 5747 5748 5748 5748 5749 5749 5748 5748 5748 5748 5748 5748 5748 5748 5747 5747 5747 5747 5747 5747 5747 5747 5747 5747 5747 5747 5747 5747 5747 5747 5747 5747 5747 5746 5746 5746 5746 5746
5741 5741 5741 5741 5741 5741 5740 5740 5740 5741 5741 5741 5741 5741 5741 5742 5742 5743 5743 5744 5743 5743 5743 5743 5743 5743 5742 5742 5742 5742 5742 5741 5741 5741 5741 5741 5741 5741 5741 5741 5741 5741 5741 5741 5741 5741 5740 5740 5740 5739 5739 5739
5736 5735 5735 5735 5735 5735 5735 5735 5735 5735 5736 5736 5736 5736 5737 5737 5737 5738 5738 5739 5739 5738 5738 5738 5737 5737 5737 5736 5736 5735 5735 5735 5735 5735 5735 5735 5735 5735 5735 5734 5734 5734 5734 5734 5734 5734 5734 5733 5733 5732 5732 5732
5730 5730 5730 5729 5729 5729 5729 5730 5730 5730 5730 5731 5731 5731 5732 5732 5732 5732 5733 5733 5733 5732 5732 5731 5731 5731 5731 5730 5729 5729 5728 5728 5728 5728 5728 5728 5728 5728 5728 5728 5728 5728 5728 5728 5728 5727 5727 5726 5726 5725 5725 5725
5724 5724 5724 5724 5724 5724 5724 5725 5725 5725 5725 5725 5725 5725 5726 5726 5726 5726 5726 5726 5726 5725 5724 5724 5724 5724 5724 5723 5722 5721 5721 5721 5720 5720 5720 5721 5721 5721 5721 5721 5721 5721 5721 5721 5720 5720 5719 5719 5718 5718 5718 5717
5719 5719 5719 5719 5719 5719 5719 5720 5720 5720 5720 5720 5720 5720 5720 5720 5720 5719 5719 5719 5718 5717 5717 5717 5717 5717 5716 5716 5716 5715 5714 5713 5713 5713 5713 5713 5714 5714 5714 5714 5713 5713 5713 5713 5713 5712 5712 5711 5711 5711 5710 5710
5714 5714 5714 5714 5714 5714 5714 5714 5714 5714 5714 5714 5714 5714 5713 5713 5713 5713 5712 5712 5711 5710 5710 5710 5710 5710 5709 5709 5709 5708 5708 5707 5706 5706 5706 5706 5706 5706 5706 5706 5706 5705 5706 5705 5705 5705 5704 5704 5704 5703 5703 5703
5708 5708 5709 5709 5709 5709 5709 5709 5708 5708 5708 5708 5708 5707 5707 5707 5706 5706 5706 5705 5704 5703 5703 5702 5702 5702 5702 5702 5701 5701 5701 5700 5700 5699 5699 5699 5699 5699 5698 5698 5698 5698 5698 5698 5698 5697 5696 5696 5696 5696 5695 5695
5703 5703 5704 5704 5704 5703 5703 5703 5702 5702 5702 5702 5701 5701 5701 5700 5700 5699 5699 5698 5697 5696 5696 5695 5695 5695 5695 5695 5694 5693 5693 5693 5693 5692 5692 5692 5692 5691 5691 5690 5690 5690 5690 5690 5690 5689 5689 5689 5689 5688 5688 5688
5697 5698 5698 5698 5697 5697 5697 5696 5696 5696 5695 5695 5694 5694 5694 5693 5693 5692 5692 5691 5690 5690 5689 5688 5688 5687 5687 5687 5687 5686 5685 5685 5685 5685 5684 5684 5684 5684 5683 5682 5682 5681 5682 5682 5682 5681 5681 5681 5680 5680 5680 5679
5691 5691 5691 5691 5691 5691 5690 5690 5690 5689 5688 5688 5687 5687 5687 5686 5686 5685 5685 5684 5683 5683 5682 5681 5680 5680 5679 5679 5678 5678 5678 5677 5676 5676 5676 5676 5676 5675 5675 5674 5673 5673 5673 5673 5673 5673 5673 5672 5672 5672 5672 5671
5684 5685 5685 5684 5684 5684 5683 5683 5683 5682 5682 5681 5680 5680 5679 5679 5678 5678 5677 5677 5676 5675 5675 5674 5673 5672 5672 5671 5670 5670 5670 5669 5668 5668 5668 5667 5667 5667 5666 5666 5665 5664 5664 5664 5664 5664 5664 5664 5663 5663 5662 5662
5677 5678 5677 5677 5677 5677 5676 5676 5675 5675 5674 5674 5673 5673 5672 5672 5671 5670 5670 5669 5669 5668 5667 5666 5665 5665 5664 5663 5662 5661 5661 5661 5660 5660 5659 5659 5658 5658 5658 5657 5657 5656 5654 5654 5655 5654 5655 5655 5654 5654 5653 5654
5670 5670 5670 5670 5670 5669 5669 5668 5668 5667 5667 5666 5665 5665 5664 5664 5663 5663 5662 5661 5661 5660 5659 5658 5658 5657 5656 5655 5654 5653 5653 5652 5652 5651 5651 5650 5650 5650 5649 5648 5648 5647 5645 5645 5645 5645 5645 5645 5644 5644 5644 5645
5663 5662 5662 5662 5661 5661 5661 5660 5660 5659 5659 5658 5657 5657 5656 5656 5655 5654 5654 5653 5653 5652 5651 5650 5650 5649 5648 5647 5646 5645 5644 5643 5643 5642 5642 5641 5641 5641 5641 5640 5639 5637 5637 5636 5635 5635 5635 5635 5634 5634 5635 5634
5656 5655 5655 5654 5653 5653 5652 5652 5651 5651 5650 5650 5649 5649 5648 5647 5647 5646 5645 5645 5644 5643 5643 5642 5641 5640 5639 5638 5637 5636 5636 5635 5634 5633 5633 5632 5631 5631 5631 5631 5630 5628 5627 5627 5626 5625 5625 5625 5624 5624 5624 5624